Theta_e
289 290 291 293 294 294 295 296 300 303 304 311 319 322 321 317 314 312 311 309 306 304 303 303 300 298 296 297 296 295 295 294 288 285 285 284 284 284 283 280 281 280 279
292 292 292 294 294 295 297 299 301 302 305 309 318 317 317 314 313 313 311 308 303 298 296 294 293 295 297 296 294 294 294 295 289 285 284 283 283 283 282 281 280 279 277
290 294 295 295 296 297 297 299 298 302 303 308 311 314 312 304 304 304 303 299 298 296 295 296 297 297 293 292 293 293 292 292 289 284 282 282 280 281 280 279 278 277 276
289 290 290 290 291 291 291 292 293 296 296 296 297 296 305 302 299 299 300 297 295 294 295 296 293 293 293 293 292 292 291 287 285 283 281 280 278 278 279 278 276 275 275
286 287 287 288 288 289 289 289 290 291 290 291 293 293 293 292 293 292 291 290 289 289 289 289 289 290 291 292 292 289 288 285 283 281 280 279 277 277 277 276 275 275 275
285 286 286 286 287 287 287 287 287 287 287 288 288 289 289 287 287 289 289 287 286 287 286 286 288 289 289 288 287 288 288 285 281 280 279 279 277 276 276 275 275 274 273
285 285 285 285 285 285 285 286 286 286 286 285 286 286 286 286 286 285 287 286 286 285 285 285 285 284 285 284 282 282 282 281 281 280 278 278 276 276 276 274 274 274 272
284 284 285 285 284 284 285 285 285 285 285 285 285 286 286 286 285 285 287 285 284 283 283 283 282 282 282 282 281 280 279 279 279 279 279 278 278 276 275 275 274 272 271
284 284 284 284 284 284 284 284 284 284 284 284 284 284 284 285 284 284 285 283 283 283 284 284 284 282 280 279 279 278 277 276 276 277 277 276 275 274 274 273 272 270 270
283 283 283 283 283 283 283 283 283 283 283 283 283 283 283 284 284 286 286 284 282 281 281 280 279 279 278 276 277 276 276 276 276 275 275 274 273 272 271 272 271 270 269
283 283 283 282 282 282 282 282 282 282 282 282 282 282 284 284 283 284 284 283 281 279 278 279 279 279 278 277 277 277 276 275 274 274 273 272 271 271 271 271 270 270 269
283 283 282 282 282 282 282 282 281 281 281 281 281 281 281 282 282 282 281 282 280 279 279 279 280 279 278 277 276 276 276 275 274 273 272 272 272 271 270 270 269 269 269
284 283 283 283 283 282 282 281 281 281 280 280 280 281 281 282 282 282 281 280 280 280 279 280 280 278 277 276 277 277 275 273 272 272 272 271 270 270 269 269 268 268 268
284 283 283 284 283 282 281 281 281 281 280 280 280 280 281 282 281 281 281 280 279 279 280 280 279 278 275 274 275 275 274 272 272 271 271 270 270 269 269 268 267 267 267
283 282 282 281 281 281 281 281 281 281 282 281 281 281 281 281 281 281 280 279 279 278 279 278 277 275 274 273 273 273 272 271 271 271 270 269 269 268 268 268 267 266 265
281 281 281 281 281 281 282 282 282 282 282 281 281 281 281 281 280 279 279 278 277 278 277 277 276 275 274 273 272 271 270 270 270 270 270 269 269 269 269 267 266 266 265
281 281 280 281 281 281 281 281 281 281 282 282 281 281 281 281 280 280 279 278 277 276 276 276 275 274 273 272 271 271 271 272 271 270 270 270 269 268 267 267 266 265 265
281 281 281 281 281 281 280 280 281 281 280 280 280 280 280 280 280 279 279 278 277 276 274 273 273 273 272 272 271 271 271 271 270 270 270 270 269 268 267 266 266 265 265
282 281 281 281 281 281 281 281 280 280 280 279 279 279 279 280 280 279 279 278 277 276 276 275 275 274 273 272 272 272 271 271 271 270 269 269 268 267 266 266 265 265 265
281 281 281 281 281 281 280 280 281 281 281 280 280 280 279 279 279 280 280 279 278 278 277 276 276 275 275 274 273 271 271 270 270 269 269 268 267 266 266 266 265 265 264
281 281 282 282 281 281 280 280 280 280 280 280 280 280 280 279 279 279 280 279 279 278 278 278 277 276 276 275 274 273 271 270 269 269 268 268 267 266 266 265 265 265 264
281 281 281 282 281 281 281 281 281 280 280 280 281 280 279 279 279 279 279 278 278 278 278 277 277 277 276 275 274 273 271 270 269 268 268 267 267 266 265 265 265 264 264
281 281 281 282 282 281 281 281 281 282 282 282 281 281 281 279 279 278 278 278 278 278 277 276 276 275 275 274 274 272 271 270 269 268 267 267 266 265 265 265 264 264 263
281 280 281 281 281 281 281 282 282 282 282 281 280 279 278 278 278 278 278 277 277 276 275 275 274 274 274 273 272 271 270 269 268 267 266 265 265 265 265 264 264 263 263
281 281 280 281 281 282 282 283 282 281 280 279 278 277 277 277 276 276 276 275 275 274 274 273 273 272 272 271 270 269 269 268 266 266 265 265 266 265 264 264 263 263 263
281 281 281 281 282 282 282 282 281 280 279 278 277 276 276 275 275 274 274 273 273 273 272 271 271 270 269 269 269 268 267 267 266 266 266 266 265 265 264 264 264 263 263
Wind_Speed
30 25 24 22 23 23 27 29 28 26 29 27 30 31 34 33 33 32 29 28 29 31 35 37 32 35 31 32 32 29 22 19 10 9 19 26 32 29 23 19 18 15 12
24 15 17 18 20 21 22 24 23 24 21 25 31 31 31 33 38 34 32 34 35 30 28 31 33 31 30 31 30 29 27 17 20 22 23 24 24 27 23 20 18 15 11
25 11 9 9 11 13 13 16 16 19 17 21 29 28 23 23 31 33 31 31 31 34 34 34 34 35 33 31 32 30 24 21 25 24 18 22 22 23 20 17 14 11 11
23 14 7 3 5 7 10 14 17 20 21 23 28 30 32 29 28 30 31 32 32 33 34 36 38 38 40 37 34 33 31 29 28 26 24 21 21 21 20 16 12 10 9
23 21 17 14 16 20 21 23 25 27 29 31 33 31 31 26 32 34 34 36 35 37 33 31 31 34 37 34 37 33 31 29 25 23 19 18 15 17 18 13 9 8 7
25 23 22 22 23 23 27 24 30 31 32 35 36 37 33 30 31 37 38 38 36 38 35 34 34 35 33 29 27 25 25 29 24 22 16 19 15 18 17 14 11 6 2
25 26 26 23 23 20 26 26 28 31 34 36 36 38 36 36 35 36 41 41 40 38 38 38 33 28 26 25 22 20 17 15 18 21 24 20 20 20 18 14 11 6 5
26 26 26 24 23 26 27 28 30 30 34 34 34 34 35 35 36 38 44 40 38 34 34 33 33 29 27 27 26 26 22 17 15 16 20 18 14 17 14 9 8 6 8
26 25 25 24 23 25 26 28 29 30 33 34 34 34 36 34 33 34 40 36 34 32 31 28 27 26 21 23 27 27 23 19 16 17 16 15 14 13 11 9 5 3 2
26 27 28 26 27 27 28 29 30 32 33 35 36 35 34 32 31 35 37 35 32 28 25 23 21 22 19 20 24 25 24 21 21 19 16 13 11 9 8 5 5 6 6
25 27 28 29 29 28 30 29 30 32 34 34 36 31 32 29 24 25 26 29 28 25 23 20 18 17 16 17 16 17 20 21 17 15 13 11 8 6 6 6 6 7 10
23 26 26 27 27 27 30 27 28 30 31 28 28 26 26 23 19 17 18 22 21 26 23 22 18 16 15 15 16 14 16 16 15 13 9 7 8 8 7 6 6 8 12
23 24 24 25 25 24 24 22 22 21 21 19 20 21 24 22 19 17 17 17 18 20 23 22 18 16 15 14 14 14 14 14 11 10 9 8 7 5 7 8 10 13 16
22 21 21 23 22 21 21 22 22 21 21 19 19 19 22 20 18 16 15 15 15 19 19 18 16 15 12 15 13 11 10 9 9 8 8 8 8 8 9 11 13 11 14
17 17 18 18 20 21 20 17 17 13 15 19 19 21 21 18 15 12 11 14 16 18 21 19 17 16 15 15 16 16 13 12 12 11 11 10 10 11 13 11 12 11 14
14 13 14 15 15 16 17 15 12 10 8 8 9 9 9 10 12 10 9 10 14 19 21 21 20 20 19 18 18 17 16 16 14 13 12 13 14 13 13 14 14 16 18
9 11 11 10 10 12 12 13 16 10 9 8 6 5 4 8 10 10 11 12 14 15 19 20 21 20 20 18 17 18 19 17 14 16 16 15 15 15 16 18 18 18 21
7 8 7 8 7 7 6 6 6 6 8 6 5 4 5 9 11 12 11 11 15 17 18 16 21 20 20 20 21 22 21 19 20 19 18 19 18 18 19 21 21 21 20
9 9 8 7 6 5 5 4 4 5 5 6 8 8 9 10 10 11 12 17 19 21 23 22 20 20 21 22 22 22 22 22 23 22 22 22 20 20 22 22 22 21 21
11 9 7 7 7 8 8 9 9 10 10 11 12 13 11 12 15 18 19 21 23 24 23 25 25 25 26 25 25 25 25 25 26 25 24 23 21 20 22 22 21 21 21
12 10 10 10 10 9 10 11 11 11 13 14 16 14 14 17 20 22 24 27 28 29 29 28 29 29 28 28 28 28 28 30 29 27 26 24 21 22 22 21 21 20 21
15 14 14 14 12 12 12 11 13 14 15 17 19 18 17 19 24 25 25 27 30 32 33 33 33 33 31 30 29 30 31 31 30 29 27 24 22 21 20 20 21 21 20
17 16 16 15 14 14 13 14 15 17 19 21 22 22 21 23 25 28 30 30 29 29 29 30 31 33 32 30 29 28 29 29 28 26 25 22 21 21 21 22 21 20 19
20 19 18 16 16 16 17 18 19 20 21 22 22 23 23 24 26 27 28 29 30 30 28 28 28 29 29 28 27 26 25 24 24 23 22 21 22 24 24 22 22 21 20
22 21 20 20 19 19 18 19 20 21 21 19 17 20 23 23 23 24 25 25 26 26 26 26 26 26 26 25 25 24 21 19 20 19 20 23 25 25 24 22 21 20 20
22 21 21 20 19 17 17 17 17 17 17 17 21 22 22 22 22 22 22 23 23 24 23 23 22 21 21 20 20 19 19 19 21 22 23 24 24 23 22 22 21 20 20
Wind_Direction
289 267 260 260 252 253 249 258 262 261 264 256 223 199 186 184 181 183 184 183 183 178 177 179 179 180 170 174 175 175 167 154 130 132 164 180 188 194 186 193 216 228 238
322 276 261 258 251 251 252 256 256 259 231 195 192 172 167 175 179 182 181 182 174 161 156 155 151 159 160 167 164 165 161 157 138 139 149 161 178 188 185 201 213 227 240
341 293 274 252 251 253 247 238 212 202 176 151 145 146 153 161 166 164 158 157 159 161 163 162 158 164 154 154 152 150 151 150 148 141 135 154 159 181 181 195 214 232 243
3 17 43 74 138 150 143 137 140 143 134 133 130 133 139 154 153 148 154 152 152 151 156 161 158 154 152 152 147 144 142 138 132 126 133 144 153 170 190 195 208 226 242
21 20 31 61 83 89 95 96 107 110 110 107 114 115 115 127 139 132 128 125 127 127 131 135 141 145 148 151 147 146 148 137 133 132 138 150 158 167 187 195 195 217 255
27 26 36 50 67 74 86 88 91 94 96 99 98 103 110 106 107 125 128 118 117 119 117 123 132 133 133 134 134 147 153 151 140 143 155 160 163 177 177 171 185 193 192
33 36 39 48 59 75 82 80 83 85 90 90 93 99 100 103 108 112 120 117 116 116 118 122 122 124 127 121 115 115 121 135 158 162 152 163 166 177 173 178 193 201 195
33 39 44 50 58 65 74 76 79 84 86 90 93 98 101 104 107 114 117 114 112 115 120 124 126 127 135 139 140 135 129 133 153 162 167 164 172 170 181 186 195 228 276
34 37 45 52 60 64 67 75 80 83 86 86 86 89 92 96 100 104 114 107 110 115 125 132 135 139 139 144 142 136 130 120 126 136 146 149 155 168 181 184 186 234 296
38 41 49 54 61 66 71 73 81 83 85 87 84 86 90 93 106 119 121 119 112 116 125 130 133 133 133 146 148 146 135 140 143 141 143 143 159 174 193 197 209 211 228
60 63 60 61 63 67 71 72 79 82 83 82 85 86 96 102 99 112 122 128 125 123 124 128 131 133 134 146 152 153 154 154 155 159 164 173 182 196 214 218 225 232 237
70 70 67 69 69 72 78 76 80 87 86 86 90 86 93 96 99 102 118 127 135 136 138 141 139 140 135 141 151 149 155 162 165 170 175 188 207 215 217 237 246 257 269
84 81 80 83 80 78 78 79 79 82 87 90 91 91 98 104 107 113 121 130 145 145 150 148 147 145 144 144 146 148 166 171 175 187 201 213 226 224 235 246 264 276 272
88 87 88 89 89 90 96 100 105 107 107 110 111 113 122 127 130 132 134 139 147 147 146 151 155 163 162 153 154 180 186 193 208 219 225 226 235 245 253 260 263 264 281
97 98 97 98 98 94 87 91 100 107 121 133 137 140 143 147 154 156 157 159 161 161 162 163 168 175 178 185 193 204 214 222 230 236 239 244 248 250 255 261 273 273 260
115 112 112 114 114 113 110 99 83 94 108 121 133 143 147 152 157 164 167 170 167 176 178 183 193 202 207 211 214 219 227 237 241 245 251 253 254 259 271 275 271 268 270
139 133 131 129 128 129 127 125 118 104 101 107 129 142 140 172 172 176 174 173 175 182 202 208 216 219 226 230 236 241 244 248 250 245 249 257 261 264 268 274 273 268 268
169 160 162 161 161 158 158 152 150 145 142 139 140 158 179 180 187 189 187 187 194 211 227 229 232 235 239 242 242 243 248 246 246 247 252 255 255 259 263 262 267 271 278
197 191 188 189 186 189 190 190 200 203 203 205 203 205 199 201 206 210 211 222 224 226 236 243 246 245 248 251 253 254 254 253 251 251 252 252 255 254 256 262 269 277 281
205 201 203 208 208 210 215 219 224 230 235 238 238 242 236 226 223 226 228 234 244 251 254 256 260 262 264 265 263 261 259 256 253 251 254 255 257 257 258 264 268 272 273
215 218 226 226 226 233 239 244 251 254 259 262 267 273 268 256 253 248 245 247 253 258 263 267 270 272 272 271 270 266 263 261 259 257 256 258 258 255 260 263 268 270 266
220 225 229 235 239 240 249 260 266 271 275 277 281 279 273 257 263 265 264 262 263 266 269 271 274 275 276 275 274 270 265 262 262 261 261 262 260 261 263 264 265 259 257
223 226 230 236 241 249 256 265 271 276 279 282 285 286 281 274 269 268 270 275 277 278 280 278 276 276 276 275 274 272 268 266 266 266 264 262 260 261 261 261 256 250 249
225 229 235 240 244 251 259 267 273 277 279 281 281 281 279 282 282 280 279 280 281 283 283 282 280 280 279 277 275 273 271 269 267 265 263 260 260 261 261 256 253 253 254
226 229 232 240 247 256 268 274 278 278 277 275 273 279 289 289 289 288 287 286 286 285 285 285 283 281 279 277 276 275 272 268 265 263 258 254 258 263 261 257 255 254 258
230 232 235 244 250 258 266 269 272 275 277 277 288 295 295 294 293 291 291 292 291 291 292 290 289 286 282 278 274 269 264 259 256 257 261 264 264 263 261 258 261 257 259